This demonstration page uses our WeatherBlox Daily Observations layout. Learn more.

Left ArrowRight Arrow

Hourly Observations for February 14, 2021

Temp ( °F °C ) Dew Point ( °F °C ) Humidity (%) Winds ( mph kmh ) Pressure ( in mb ) Visibility ( mi km ) Precip ( " mm )
12:54 am 00:54 Cloudy 0 -17.8 -12 -24.4 57 57 N 15 24 30.65 1038 9 14.48406 0 0
1:42 am 01:42 Cloudy with Light Snow -1 -18.3 -12 -24.4 59 59 NNE 14 22 30.72 1040 3 4.82802 0.001 0.001
1:54 am 01:54 Cloudy with Light Snow -1 -18.3 -12 -24.4 59 59 NNE 15 24 30.65 1038 3 4.82802 0.001 0.001
2:17 am 02:17 Cloudy with Light Snow -1 -18.3 -12 -24.4 59 59 NNE 13 20 30.72 1040 4 6.43736 0.001 0.001
2:54 am 02:54 Cloudy -1 -18.3 -13 -25 56 56 NNE 15 24 30.67 1039 10 16.0934 0.001 0.001
3:54 am 03:54 Cloudy with Light Snow -1 -18.3 -12 -24.4 59 59 NNE 12 19 30.7 1040 4 6.43736 0.001 0.001
4:05 am 04:05 Cloudy with Light Snow -2 -18.9 -12 -24.4 62 62 N 14 22 30.77 1042 2.5 4.02335 0.001 0.001
4:42 am 04:42 Cloudy with Light Snow -2 -18.9 -10 -23.3 68 68 N 10 17 30.78 1042 1.75 2.816345 0.01 0.254
4:54 am 04:54 Cloudy with Light Snow -3 -19.4 -10 -23.3 71 71 N 12 19 30.72 1040 2 3.21868 0.01 0.254
5:29 am 05:29 Cloudy with Light Snow -3 -19.4 -10 -23.3 71 71 N 16 26 30.78 1042 1.75 2.816345 0.01 0.254
5:41 am 05:41 Cloudy with Light Snow -3 -19.4 -10 -23.3 71 71 N 15 24 30.79 1043 2 3.21868 0.01 0.254
5:54 am 05:54 Cloudy with Light Snow -3 -19.4 -11 -23.9 68 68 N 15 24 30.72 1040 2.5 4.02335 0.01 0.254
6:01 am 06:01 Cloudy with Light Snow -3 -19.4 -11 -23.9 68 68 N 16 26 30.79 1043 3 4.82802 0.001 0.001
6:26 am 06:26 Cloudy with Light Snow -4 -20 -12 -24.4 68 68 N 17 28 30.79 1043 2.5 4.02335 0.001 0.001
6:41 am 06:41 Cloudy with Light Snow -4 -20 -12 -24.4 68 68 N 18 30 30.79 1043 3 4.82802 0.001 0.001
6:54 am 06:54 Windy with Snow Likely -5 -20.6 -13 -25 68 68 N 20 31 30.73 1041 3 4.82802 0.001 0.001
7:54 am 07:54 Cloudy with Light Snow -5 -20.6 -14 -25.6 64 64 N 16 26 30.75 1041 4 6.43736 0.001 0.001
8:54 am 08:54 Cloudy -6 -21.1 -16 -26.7 61 61 N 15 24 30.77 1042 10 16.0934 0.001 0.001
9:54 am 09:54 Cloudy -6 -21.1 -17 -27.2 58 58 N 15 24 30.79 1043 9 14.48406 0 0
10:29 am 10:29 Cloudy with Light Snow -7 -21.7 -17 -27.2 61 61 N 16 26 30.86 1045 2.5 4.02335 0.001 0.001
10:41 am 10:41 Cloudy with Light Snow -7 -21.7 -17 -27.2 61 61 N 17 28 30.85 1045 3 4.82802 0.001 0.001
10:54 am 10:54 Cloudy with Haze -7 -21.7 -17 -27.2 61 61 N 18 30 30.78 1042 5 8.0467 0.001 0.001
11:54 am 11:54 Cloudy -6 -21.1 -17 -27.2 58 58 NNE 16 26 30.79 1043 10 16.0934 0 0
12:54 pm 12:54 Mostly Cloudy -7 -21.7 -19 -28.3 55 55 N 21 33 30.76 1042 10 16.0934 0 0
1:54 pm 13:54 Mostly Cloudy -7 -21.7 -19 -28.3 55 55 NNE 17 28 30.73 1041 10 16.0934 0 0
2:54 pm 14:54 Cloudy -7 -21.7 -19 -28.3 55 55 NNE 17 28 30.73 1041 10 16.0934 0 0
3:54 pm 15:54 Cloudy -7 -21.7 -18 -27.8 58 58 NNE 18 30 30.73 1041 10 16.0934 0 0
4:54 pm 16:54 Cloudy -8 -22.2 -18 -27.8 61 61 NNE 17 28 30.74 1041 10 16.0934 0 0
5:54 pm 17:54 Cloudy -8 -22.2 -19 -28.3 58 58 N 15 24 30.74 1041 10 16.0934 0 0
6:54 pm 18:54 Cloudy -9 -22.8 -20 -28.9 58 58 N 14 22 30.76 1042 10 16.0934 0 0
7:54 pm 19:54 Cloudy -9 -22.8 -20 -28.9 58 58 NNE 15 24 30.76 1042 10 16.0934 0 0
8:54 pm 20:54 Cloudy -10 -23.3 -21 -29.4 57 57 N 14 22 30.76 1042 10 16.0934 0 0
9:54 pm 21:54 Cloudy -10 -23.3 -20 -28.9 60 60 N 18 30 30.74 1041 10 16.0934 0 0
10:54 pm 22:54 Cloudy -10 -23.3 -20 -28.9 60 60 N 14 22 30.74 1041 10 16.0934 0 0
11:54 pm 23:54 Cloudy -11 -23.9 -20 -28.9 63 63 N 13 20 30.73 1041 10 16.0934 0 0

Powered by AerisWeather